Regional Weather Roundup
Issued by NWS

Home | Current Version | Previous Version | Graphics & Text | Print | Product List | Glossary On
Versions: 1 2 3 4 5 6 7 8 9 10 11 12 13 14 15 16 17 18 19 20 21 22 23 24 25 26 27 28 29 30 31 32 33 34 35 36 37 38 39 40 41 42 43 44 45 46 47 48 49 50
000
ASUS43 KBIS 310720
RWRND

NORTH DAKOTA REGIONAL WEATHER ROUNDUP
NATIONAL WEATHER SERVICE BISMARCK ND
200 AM CDT THU JUL 31 2014

NOTE: "FAIR" INDICATES FEW OR NO CLOUDS BELOW 12,000 FEET WITH NO
SIGNIFICANT WEATHER AND/OR OBSTRUCTIONS TO VISIBILITY.


NDZ001>003-009>011-017-310800-
NORTHWEST NORTH DAKOTA

CITY           SKY/WX    TMP DP  RH WIND       PRES   REMARKS
WILLISTON      LGT RAIN  68  57  68 E7        30.16S
MINOT          CLEAR     61  53  75 SW6       30.11R
MINOT AFB      CLEAR     57  56  97 W9        30.10R
$$

NDZ018>021-031>035-040>046-310800-
SOUTHWEST NORTH DAKOTA

CITY           SKY/WX    TMP DP  RH WIND       PRES   REMARKS
BISMARCK       CLEAR     62  57  83 NE3       30.11S
DICKINSON      CLEAR     58  53  84 S6        30.12F
GARRISON         N/A     59  57  93 N6        30.11F
HETTINGER ARPT CLEAR     55  51  86 CALM      30.14F
$$

NDZ004>008-012>016-024-026-027-054-310800-
NORTHEAST NORTH DAKOTA

CITY           SKY/WX    TMP DP  RH WIND       PRES   REMARKS
GRAND FORKS    CLEAR     59  56  89 W6        30.03F
GRND FRKS AFB  CLEAR     58  58  99 W2        30.05S
DEVILS LAKE    CLEAR     61  55  82 W3        30.07S
$$

NDZ022-023-025-028>030-036>039-047>053-310800-
SOUTHEAST NORTH DAKOTA

CITY           SKY/WX    TMP DP  RH WIND       PRES   REMARKS
FARGO          CLEAR     59  54  83 SW5       30.05S
JAMESTOWN      PTCLDY    59  55  87 N3        30.08F
$$



USA.gov is the U.S. government's official web portal to all federal, state and local government web resources and services.